Theta_e
322 322 322 322 322 322 322 322 322 322 322 321 318 320 320 319 321 322 321 318 315 319 321 322 323 323 323 324 323 324 318 320 323 323 323 321 321 323 323 324 323 323 323 325 331
320 321 322 322 322 322 323 323 322 322 322 321 319 320 320 320 323 322 319 316 317 320 320 320 322 322 322 323 324 321 319 322 322 320 320 321 322 322 322 321 323 323 324 328 328
321 321 322 322 322 323 323 322 322 322 322 322 318 319 319 322 325 318 317 316 317 319 320 321 322 322 322 323 323 322 319 321 323 324 323 322 322 323 321 320 322 322 322 322 322
322 322 322 323 323 323 322 322 322 322 321 320 319 318 319 324 325 318 316 316 317 318 322 322 322 322 321 321 322 322 322 322 323 323 323 323 323 322 322 322 322 322 322 321 322
323 322 323 323 323 322 322 322 322 321 320 319 319 318 322 322 322 321 318 317 319 320 321 321 321 321 320 320 321 321 321 322 322 322 321 322 322 321 321 321 321 321 321 321 321
323 323 323 323 323 322 322 322 322 321 319 319 319 318 322 321 322 320 318 319 320 320 320 320 319 320 320 320 320 321 321 321 322 322 321 320 320 321 322 322 321 321 321 321 321
323 323 323 323 323 323 323 322 321 318 319 318 317 320 319 318 319 319 320 319 318 318 320 320 320 319 320 319 321 322 320 318 320 320 319 320 319 318 322 321 321 321 321 320 320
323 323 323 323 323 323 322 319 319 319 318 319 321 319 317 318 317 317 318 319 319 320 320 321 320 319 320 320 321 320 319 320 319 320 320 320 319 318 321 320 320 320 321 320 319
323 323 324 323 323 323 322 317 318 317 318 321 323 322 318 317 316 316 317 318 319 321 322 322 321 320 320 319 318 317 320 320 320 319 319 318 317 317 320 319 320 320 321 319 321
323 324 323 323 320 320 319 316 318 317 318 318 317 318 317 316 316 316 316 317 318 319 321 323 322 319 317 318 323 322 320 318 319 319 317 316 316 315 318 318 318 318 319 319 321
324 324 324 323 318 319 316 316 317 317 316 313 314 314 315 314 314 315 315 316 316 317 318 320 321 322 321 319 320 320 317 317 316 316 317 316 316 315 316 318 317 318 317 318 321
321 322 322 321 319 317 316 315 316 314 312 315 314 315 315 316 315 315 315 316 317 316 315 314 319 318 319 320 318 317 317 316 315 316 315 314 314 313 313 315 317 316 316 316 313
320 321 319 318 318 315 317 315 315 316 311 316 314 316 316 317 315 315 316 316 316 316 315 315 315 315 317 315 316 316 316 316 315 313 313 313 313 315 314 315 313 312 310 306 304
318 320 320 315 315 316 316 314 314 316 315 317 316 316 315 317 317 314 314 313 313 314 313 313 313 312 312 312 313 314 313 312 312 311 312 311 313 311 310 310 305 303 303 303 303
316 317 317 315 314 317 314 314 316 315 317 316 315 314 313 313 313 315 313 313 313 312 312 311 312 312 312 310 310 312 309 310 311 310 309 310 309 308 308 309 304 301 302 303 304
313 311 309 312 314 311 310 312 317 315 322 314 314 313 313 313 313 313 312 312 311 311 310 310 312 309 309 309 307 308 307 307 308 309 310 310 308 307 309 308 304 304 306 305 305
309 309 310 312 312 309 310 317 311 317 315 314 313 312 311 310 310 310 310 309 309 309 309 309 310 308 308 307 306 306 305 306 306 309 309 307 307 307 305 305 305 305 303 304 304
306 307 308 312 311 309 312 311 316 316 314 313 312 311 310 309 309 309 308 308 306 307 308 308 310 309 308 306 306 305 305 305 309 308 308 306 307 308 303 302 303 304 304 304 304
305 306 310 313 307 309 313 311 313 313 312 311 310 308 309 310 309 308 307 307 306 305 307 307 308 307 308 307 306 306 305 305 305 306 305 306 306 308 306 304 304 304 304 304 304
305 310 313 313 307 307 308 312 310 310 310 310 310 310 310 309 308 307 307 306 308 306 306 306 307 307 308 307 306 305 304 305 305 308 309 305 306 309 308 306 305 303 303 303 304
309 310 311 310 310 312 309 311 310 309 309 309 310 310 309 308 308 308 308 307 306 307 306 304 305 306 306 306 305 304 303 304 302 306 309 308 305 308 306 304 303 301 301 302 303
312 310 311 310 307 307 307 310 310 309 309 308 309 309 308 308 308 308 308 308 307 306 306 305 303 304 305 304 304 303 303 303 304 302 303 303 303 308 303 303 303 300 301 302 302
312 311 310 308 304 303 307 308 306 308 309 308 307 308 307 308 307 308 308 307 306 306 306 305 301 300 301 298 299 302 303 304 300 296 302 303 302 301 303 305 305 301 301 302 302
309 303 308 308 306 305 304 305 307 305 307 306 306 306 305 305 305 305 304 305 304 305 305 305 302 301 303 301 298 302 302 302 300 302 300 302 302 302 303 303 303 303 300 302 302
308 306 306 301 301 303 302 302 304 303 305 305 304 303 302 298 302 303 303 303 303 303 304 303 303 301 301 302 302 302 302 302 300 300 302 302 302 302 302 301 300 300 300 302 302
306 306 304 300 301 300 298 299 303 303 302 302 302 301 300 300 301 301 301 299 301 302 301 301 301 302 302 301 301 301 301 302 301 299 301 302 302 302 302 301 300 300 301 302 301
304 304 304 300 301 297 296 301 302 301 301 301 301 300 299 299 301 301 300 300 301 301 301 298 300 301 301 299 300 300 300 299 296 298 298 295 296 295 299 300 300 301 302 302 301
Wind_Speed
14 14 14 14 15 15 16 17 17 18 18 16 13 9 6 3 2 4 3 3 7 9 8 7 7 5 3 2 2 1 4 1 2 1 2 6 4 3 3 4 7 5 3 4 9
14 14 15 15 15 16 17 18 18 18 18 16 12 8 5 3 7 6 5 6 8 6 3 5 6 3 2 1 0 4 3 5 2 1 2 3 3 9 5 8 6 7 6 7 5
15 14 15 15 16 17 18 19 19 19 17 16 11 7 3 6 5 4 5 5 5 3 4 4 3 2 1 2 2 3 4 2 3 3 4 3 6 4 4 4 8 9 10 7 8
15 16 16 17 17 18 19 20 20 19 16 12 9 6 2 6 2 3 3 2 2 2 3 2 2 2 1 2 2 1 6 5 5 6 4 3 3 6 12 18 20 19 18 14 13
16 16 17 17 18 18 20 21 22 18 13 14 8 2 5 5 4 4 1 1 2 3 2 3 5 3 1 3 6 3 3 8 10 14 12 10 10 8 18 24 21 20 22 20 17
17 17 18 18 17 18 20 22 19 18 8 13 1 4 5 4 3 5 3 3 3 1 3 2 3 5 3 3 0 5 7 13 15 22 15 7 9 4 18 18 15 13 15 19 19
16 17 18 19 17 18 23 24 19 10 5 9 4 7 9 5 2 3 2 5 6 2 1 2 5 4 5 5 7 7 7 8 7 4 5 2 4 8 24 22 22 22 16 17 14
15 16 18 19 18 20 22 20 12 8 10 6 7 5 5 4 4 2 1 2 4 3 3 3 4 4 2 6 7 4 3 5 5 1 2 6 8 8 15 11 11 15 18 17 10
16 18 19 21 20 21 21 17 2 4 6 5 5 7 4 4 3 4 1 3 2 3 5 4 5 2 2 3 5 5 2 3 7 5 1 1 6 6 9 8 10 14 18 14 15
16 19 20 22 23 24 22 10 3 11 5 3 7 8 3 4 4 3 4 2 2 4 4 2 2 3 3 3 3 4 6 5 6 4 6 9 16 8 22 25 26 21 19 19 13
17 19 18 21 21 24 25 4 10 0 14 5 4 3 5 4 3 1 6 3 2 2 2 2 3 5 8 6 6 5 5 8 5 7 6 8 12 6 11 14 17 22 23 7 15
18 17 16 20 14 21 23 21 18 11 7 6 4 4 4 7 3 3 4 2 1 2 3 5 5 7 7 7 5 6 8 8 6 3 6 8 17 8 6 4 6 12 10 16 15
16 16 16 18 7 18 23 25 21 19 2 4 3 2 2 2 2 3 3 2 1 2 2 4 6 9 2 4 6 3 7 6 8 5 5 7 8 4 3 16 9 17 22 20 19
16 15 16 17 5 15 14 19 14 14 3 3 2 2 3 3 2 3 0 4 3 2 4 5 4 7 9 5 6 5 7 5 8 7 6 4 13 13 6 2 11 19 22 20 20
14 15 15 15 11 10 18 17 13 5 3 1 0 1 3 2 6 0 2 1 2 3 5 6 6 7 5 4 4 3 6 6 6 6 4 3 4 5 7 6 5 10 18 20 21
14 15 15 11 8 15 17 14 2 4 2 2 2 3 5 3 3 3 4 2 4 1 1 5 12 4 1 1 8 6 9 7 4 1 3 1 2 4 3 1 3 5 13 17 20
13 12 13 12 15 17 14 4 4 4 5 7 4 5 4 7 8 7 5 6 4 7 5 6 3 4 8 2 5 9 7 6 5 3 8 8 9 6 5 6 3 5 16 18 18
12 10 10 10 14 14 13 4 2 4 4 4 5 6 5 9 4 7 5 6 9 6 3 2 5 3 5 3 3 3 4 3 6 3 12 8 6 3 2 12 11 13 16 24 24
10 8 8 9 11 10 7 5 2 2 4 6 5 5 4 5 4 7 6 5 5 8 3 6 4 7 8 4 5 4 1 3 5 9 5 5 4 2 1 7 11 13 15 14 16
8 6 7 7 7 11 4 4 4 5 2 3 3 4 4 6 6 6 3 3 3 8 3 3 7 2 2 5 4 2 4 4 3 5 7 5 5 3 5 11 8 8 14 14 13
4 3 8 4 12 4 3 2 4 10 9 4 2 3 3 3 2 2 4 2 3 4 5 3 1 4 3 3 8 5 4 3 2 2 6 7 5 3 5 6 6 11 16 12 8
2 3 9 10 4 4 2 4 4 4 6 6 4 4 3 4 3 2 3 2 5 5 3 2 2 4 6 9 6 4 0 3 1 7 4 5 14 5 6 5 6 11 13 10 7
3 3 7 7 3 3 5 4 8 8 6 5 3 4 4 3 3 2 4 4 14 6 3 3 2 4 9 5 4 1 2 4 3 1 13 7 8 6 7 9 17 15 14 13 7
2 3 7 10 6 3 4 4 3 8 3 4 3 5 5 4 1 4 4 6 22 12 15 0 2 7 8 11 2 14 12 13 6 4 9 12 18 14 10 13 15 20 19 12 6
4 3 3 2 6 6 3 3 3 4 5 4 4 6 3 2 4 3 3 4 7 14 3 3 4 5 10 12 12 15 17 22 12 16 8 20 13 18 12 13 11 18 8 8 8
3 3 5 4 2 2 1 3 1 3 1 2 1 3 3 4 6 13 5 3 6 5 3 3 7 4 22 16 14 19 18 19 18 15 8 15 17 14 24 22 12 7 4 6 9
7 6 3 4 3 3 3 2 2 1 5 5 4 3 6 7 9 16 19 20 19 12 13 5 4 8 19 8 7 8 10 8 5 6 5 5 7 5 2 1 1 1 2 9 14
Wind_Direction
12 7 6 5 1 358 357 355 354 352 352 354 356 357 14 17 104 129 77 79 98 109 108 86 75 72 32 43 61 104 64 194 266 84 235 360 2 27 332 309 330 329 188 252 184
13 8 4 359 355 351 349 347 347 345 345 345 347 355 20 76 115 97 89 99 113 112 92 80 59 13 347 294 195 86 105 222 272 243 247 305 3 329 339 330 306 290 73 147 190
12 9 5 359 354 350 348 345 345 343 342 342 347 352 13 139 118 68 94 105 119 97 103 89 80 359 308 227 210 172 190 227 288 303 262 263 308 313 327 303 248 272 296 269 243
10 4 1 358 355 352 348 343 342 341 341 344 343 345 58 148 127 71 93 103 111 126 131 94 359 343 316 325 305 229 252 249 266 318 282 263 261 286 269 259 274 274 281 293 280
7 5 2 359 356 353 347 339 338 336 335 338 311 311 145 96 86 37 55 111 107 119 88 7 54 16 333 315 329 214 275 298 292 292 280 271 243 251 271 282 283 278 273 282 280
7 6 3 360 358 355 347 340 339 332 333 343 351 148 139 86 80 36 110 70 52 106 71 28 359 333 291 292 215 309 288 289 293 281 273 261 280 239 275 285 284 273 267 257 267
9 7 6 2 359 357 349 345 345 353 353 2 97 129 101 101 43 71 66 63 27 321 194 337 320 312 328 317 324 285 308 326 285 298 227 181 300 226 269 280 278 263 252 259 269
12 8 5 1 356 356 353 346 348 42 25 70 107 115 69 113 89 88 75 359 44 20 359 333 338 296 266 314 332 341 44 352 294 333 325 157 260 276 285 281 264 246 243 253 244
9 4 3 359 353 353 353 346 28 348 19 103 87 105 74 89 6 20 348 30 20 356 360 346 331 353 359 62 355 2 272 268 307 345 14 51 274 280 295 280 270 246 238 262 185
6 2 360 358 349 352 358 3 130 46 71 96 67 106 71 318 340 41 52 33 359 332 330 352 14 41 30 76 247 271 295 258 257 291 334 296 281 278 291 289 288 282 272 279 191
349 351 357 356 348 356 4 48 39 285 35 41 23 359 347 8 85 71 349 339 333 319 12 345 52 237 247 211 228 242 240 250 257 262 293 284 288 294 290 286 290 293 306 180 128
346 346 359 358 358 1 3 47 25 352 319 25 28 9 22 23 58 25 30 66 40 302 337 16 256 258 258 266 264 278 290 286 279 301 326 292 291 266 259 282 317 351 93 107 96
345 347 354 360 4 4 15 23 4 359 359 331 359 9 10 22 5 351 25 359 263 295 338 174 260 331 4 333 308 274 279 295 295 327 246 300 296 108 303 293 44 81 97 87 69
349 352 351 4 2 1 8 5 344 342 54 322 345 355 3 347 312 315 69 19 348 322 343 268 315 6 349 340 333 328 347 315 306 351 303 77 295 309 258 348 66 71 78 69 56
353 353 350 358 351 355 338 340 323 334 20 255 186 7 350 341 328 352 295 349 235 251 75 265 328 339 36 347 351 332 342 319 280 273 318 232 255 294 26 46 51 45 44 41 36
349 348 350 359 4 342 328 331 340 42 19 19 33 34 19 315 299 330 12 359 287 38 255 249 311 48 53 316 67 312 347 322 332 9 284 51 33 287 332 170 110 29 28 26 22
348 349 353 5 349 350 346 356 28 103 350 353 351 353 348 338 8 23 20 13 20 350 6 336 344 146 38 29 358 11 20 339 323 4 270 341 333 279 60 58 103 40 40 27 15
342 340 349 355 352 350 349 51 105 50 6 357 332 323 70 11 33 9 10 3 27 14 306 12 321 14 351 74 291 271 114 177 276 253 295 310 251 205 66 61 47 36 18 13 8
342 336 358 360 360 360 349 54 160 8 324 339 320 51 2 2 34 3 23 29 26 19 21 353 274 330 51 350 32 311 198 242 262 280 273 233 276 181 134 27 4 355 356 1 356
349 352 16 8 1 347 60 121 99 16 359 8 47 58 2 1 24 23 339 315 25 21 338 322 293 319 336 4 8 67 265 317 256 268 277 277 271 291 14 347 316 331 335 322 322
335 359 8 2 351 22 102 107 119 52 39 52 80 323 44 11 295 322 289 21 7 331 60 20 194 287 21 56 290 328 313 302 300 257 285 300 266 184 187 227 306 304 308 302 329
28 41 359 352 53 30 64 359 50 13 46 32 86 55 60 24 326 305 271 343 4 18 356 341 266 287 263 264 274 217 186 89 182 293 266 263 280 226 188 206 273 304 316 285 300
71 6 9 360 85 13 341 46 48 16 24 19 61 28 31 355 323 287 339 36 21 2 20 337 298 336 320 351 360 338 220 248 216 143 266 264 278 212 231 255 277 262 273 262 292
56 31 33 57 62 73 26 19 7 9 49 33 3 19 24 343 280 296 317 324 343 330 300 356 240 191 251 262 243 293 282 283 203 247 276 256 276 271 260 270 264 271 282 247 289
64 66 67 4 29 50 32 12 344 349 13 7 5 67 77 295 321 246 324 308 327 313 35 114 243 240 255 266 275 267 277 282 265 252 241 279 268 275 269 269 268 288 253 241 298
92 114 89 105 100 36 359 212 247 297 265 295 276 306 271 207 223 286 271 271 238 278 188 210 267 286 288 286 274 277 268 263 266 269 245 262 276 276 272 277 267 275 251 288 329
113 119 150 164 147 89 239 217 186 348 273 202 282 297 287 286 300 296 294 278 256 247 258 209 242 275 274 293 300 281 245 246 261 238 216 263 262 303 5 104 28 49 295 300 312